Regional Weather Roundup
Issued by NWS

Home | Current Version | Previous Version | Text Only | Print | Product List | Glossary Off
Versions: 1 2 3 4 5 6 7 8 9 10 11 12 13 14 15 16 17 18 19 20 21 22 23 24 25 26 27 28 29 30 31 32 33 34 35 36 37 38 39 40 41 42 43 44 45 46 47 48 49 50

000
ASUS45 KPSR 121510
RWRAZ

ARIZONA HOURLY REGIONAL WEATHER ROUNDUP
NATIONAL WEATHER SERVICE PHOENIX AZ
800 AM MST FRI FEB 12 2016

NOTE: FAIR INDICATES FEW OR NO CLOUDS BELOW 12,000 FEET WITH NO
SIGNIFICANT WEATHER AND/OR OBSTRUCTIONS TO VISIBILITY.

AZZ001>003-036-121600-
NORTHWEST ARIZONA

CITY           SKY/WX    TMP DP  RH WIND       PRES   REMARKS
BULLHEAD CITY  CLEAR     48  28  46 S6        30.20R
KINGMAN        PTCLDY    33  23  66 CALM      30.26R
$$

AZZ004>008-015-016-018-121600-
NORTH CENTRAL ARIZONA

CITY           SKY/WX    TMP DP  RH WIND       PRES   REMARKS
GRAND CANYON   PTCLDY    23  18  81 NE5       30.41R WCI  17
WILLIAMS       CLEAR     34  16  47 S13       30.44S WCI  25
PRESCOTT       CLEAR     36  20  52 S3        30.34R
FLAGSTAFF      CLEAR     23  18  81 CALM      30.42S
PAYSON         CLEAR     54  10  17 E5        30.33S
PAGE           CLEAR     36  29  75 CALM      30.41R
$$

AZZ009>014-017-121600-
NORTHEAST ARIZONA

CITY           SKY/WX    TMP DP  RH WIND       PRES   REMARKS
WINSLOW        PTCLDY    27  20  75 CALM      30.42R
SAINT JOHNS    CLEAR     27  17  66 CALM      30.41R
WINDOW ROCK    CLEAR     25   0  33 CALM      30.45R
SHOW LOW       CLEAR     27  18  69 CALM      30.42R
$$

AZZ023-121600-
GREATER PHOENIX AREA

CITY           SKY/WX    TMP DP  RH WIND       PRES   REMARKS
PHOENIX        CLEAR     58  32  37 VRB6      30.16R
BUCKEYE        CLEAR     45  32  61 NW5       30.17S
GLENDALE       CLEAR     50  34  53 CALM      30.18R
LUKE AFB       CLEAR     49  34  56 N3        30.16R
DEER VALLEY    CLEAR     53  30  41 CALM      30.16R
SCOTTSDALE     CLEAR     51  37  58 CALM      30.18R
MESA-FALCON    CLEAR    N/A N/A N/A N9        30.17R
MESA-GATEWAY   CLEAR     46  34  61 SE5       30.18R
CHANDLER       CLEAR     48  34  57 CALM      30.18R
$$

AZZ027-028-121600-
SOUTHWEST MARICOPA COUNTY AND PINAL COUNTY

CITY           SKY/WX    TMP DP  RH WIND       PRES   REMARKS
CASA GRANDE    CLEAR     48  27  43 E7        30.18R
GILA BEND      CLEAR     52  30  41 E7        30.14R
$$

AZZ503-504-507>509-121600-
SOUTHEAST ARIZONA

CITY           SKY/WX    TMP DP  RH WIND       PRES   REMARKS
TUCSON         CLEAR     49  23  36 SE8       30.23R
DAVIS-MONTHAN  CLEAR     53  20  27 SE10      30.21R
RYAN FIELD     CLEAR     45  28  53 SE7       30.22R
NOGALES        CLEAR     42  20  41 CALM      30.26R
SIERRA VISTA   SUNNY     51  19  29 CALM      30.31R
DOUGLAS        MOSUNNY   41  15  35 CALM      30.30R
SAFFORD        SUNNY     41  20  43 CALM      30.28R
$$

AZZ020-021-025-026-031-121600-
SOUTHWEST ARIZONA

CITY           SKY/WX    TMP DP  RH WIND       PRES   REMARKS
YUMA           PTCLDY    58  28  32 N8        30.12R
$$

CAZ031-033-041-043-047-048-061-121600-
SOUTHERN CALIFORNIA

CITY           SKY/WX    TMP DP  RH WIND       PRES   REMARKS
DOWNTOWN L.A.  CLEAR     57  36  45 CALM      30.09R
L.A. AIRPORT   PTCLDY    60  37  42 CALM      30.10R
SAN DIEGO      PTCLDY    57  36  45 CALM      30.10R
BURBANK        CLEAR     51  34  52 CALM      30.11R
ONTARIO        PTCLDY    52  33  48 N3        30.12R
RIVERSIDE      PTCLDY    53  31  42 NE7       30.13R
PALM SPRINGS   CLEAR     58  25  28 NW7       30.15R
EL CENTRO NAS  CLEAR     48  21  34 W8        30.14R
IMPERIAL       CLEAR     47  28  47 W8        30.12R
BLYTHE         CLEAR     49  24  37 W6        30.15R
NEEDLES        CLEAR     52  26  36 W8        30.19R
$$

NVZ020-UTZ003-121600-
SOUTHERN NEVADA-UTAH

CITY           SKY/WX    TMP DP  RH WIND       PRES   REMARKS
LAS VEGAS      PTCLDY    48  20  32 SW3       30.22R
SALT LAKE CITY FOG       29  27  92 CALM      30.44R VSB 1
$$

NMZ009-TXZ055-121600-
NEW MEXICO-WEST TEXAS

CITY           SKY/WX    TMP DP  RH WIND       PRES   REMARKS
ALBUQUERQUE    CLOUDY    35  20  54 NE3       30.41R
EL PASO        PTSUNNY   43  17  35 NE3       30.31R
$$


........................KEY........................
SKY/WX - SKY CONDITION/WEATHER
TMP    - TEMPERATURE IN FAHRENHEIT
DP     - DEW POINT IN FAHRENHEIT
RH     - RELATIVE HUMIDITY IN PERCENT
WIND   - DIRECTION AND SPEED IN MILES PER HOUR (MPH)
VRB    - VARIABLE WIND DIRECTION
PRES   - MEAN SEA LEVEL PRESSURE IN INCHES OF MERCURY
         F - FALLING PRESSURE   R - RISING PRESSURE
         S - STEADY PRESSURE
VSB    - VISIBILITY IN MILES
HX     - HEAT INDEX IN FAHRENHEIT
WCI    - WIND CHILL INDEX IN FAHRENHEIT
TC     - TEMPERATURE IN CELSIUS WHICH IS ALSO KNOWN AS
         TEMPERATURE IN CENTIGRADE
AFB    - AIR FORCE BASE
         LUKE AFB IS LUKE AIR FORCE BASE
         DAVIS-MONTHAN IS DAVIS-MONTHAN AIR FORCE BASE
NAS    - NAVAL AIR STATION
         EL CENTRO NAS IS EL CENTRO NAVAL AIR STATION
N/A    - NOT AVAILABLE




USA.gov is the U.S. government's official web portal to all federal, state and local government web resources and services.